FLOCK 4S-30 (47544 NORAD) Tracking and Keplerian Element Data

This shows tracking and keplerian element data for the satellite.

Feedback or suggestion? Click here.




ElementValue
Catalog47544
NameFLOCK 4S-30
Epoch Orbit1294
Epoch Day101.90873651
Epoch Year2021
RAAN164.1796
Inclination97.4942
Eccentricity0.0007759
Argument of Perigee353.4775
Mean Anonmoly6.6353
Mean Motion15.11947244
Decay Rate2.117E-05
L11 47544U 21006EE 21101.90873651 .00002117 00000-0 12720-3 0 9993
L22 47544 97.4942 164.1796 0007759 353.4775 6.6353 15.11947244 12944

Live tracking and technical data element details for FLOCK 4S-30 (NORAD 47544). FLOCK 4S-30 can be tracked NOW for your location showing map with azimuth and elevation plus other details from your city location.

Track the satellite on the map from your city or location and see movement details for azimuth, elevation, latitude, longitude, range, height, and movement on the map or in text.







IsCatalogInMostPopularTable: catalog: 47544, numindb: 14
Update: records affected: 1



GetName: 47544 FLOCK 4S-30

Hit Count: updated at: Tue, 13 Apr 2021 03:27:34 GMT